Data supplied by UK-AIR on 3/1/2024
All Data GMT hour ending 
Status: R =Ratified P=Provisional,P*=As supplied
,,London Honor Oak Park,,,,,,,,,,,,,,,,,,,,,,,
Date,time,"PM<sub>10</sub> particulate matter (Hourly measured)",status,unit,"PM<sub>2.5</sub> particulate matter (Hourly measured)",status,unit
 
01-01-2023,01:00,9.900,R,ugm-3 (FIDAS),6.509,R,ugm-3 (Ref.eq)
01-01-2023,02:00,8.500,R,ugm-3 (FIDAS),4.717,R,ugm-3 (Ref.eq)
01-01-2023,03:00,10.200,R,ugm-3 (FIDAS),5.566,R,ugm-3 (Ref.eq)
01-01-2023,04:00,13.300,R,ugm-3 (FIDAS),6.509,R,ugm-3 (Ref.eq)
01-01-2023,05:00,15.400,R,ugm-3 (FIDAS),7.453,R,ugm-3 (Ref.eq)
01-01-2023,06:00,16.700,R,ugm-3 (FIDAS),8.113,R,ugm-3 (Ref.eq)
01-01-2023,07:00,16.300,R,ugm-3 (FIDAS),8.208,R,ugm-3 (Ref.eq)
01-01-2023,08:00,18.300,R,ugm-3 (FIDAS),8.962,R,ugm-3 (Ref.eq)
01-01-2023,09:00,19.800,R,ugm-3 (FIDAS),9.811,R,ugm-3 (Ref.eq)
01-01-2023,10:00,21.000,R,ugm-3 (FIDAS),10.283,R,ugm-3 (Ref.eq)
01-01-2023,11:00,20.700,R,ugm-3 (FIDAS),10.283,R,ugm-3 (Ref.eq)
01-01-2023,12:00,20.800,R,ugm-3 (FIDAS),10.094,R,ugm-3 (Ref.eq)
01-01-2023,13:00,19.300,R,ugm-3 (FIDAS),10.000,R,ugm-3 (Ref.eq)
01-01-2023,14:00,20.500,R,ugm-3 (FIDAS),10.283,R,ugm-3 (Ref.eq)
01-01-2023,15:00,16.700,R,ugm-3 (FIDAS),8.868,R,ugm-3 (Ref.eq)
01-01-2023,16:00,19.300,R,ugm-3 (FIDAS),9.906,R,ugm-3 (Ref.eq)
01-01-2023,17:00,12.400,R,ugm-3 (FIDAS),7.076,R,ugm-3 (Ref.eq)
01-01-2023,18:00,11.900,R,ugm-3 (FIDAS),8.019,R,ugm-3 (Ref.eq)
01-01-2023,19:00,13.100,R,ugm-3 (FIDAS),8.868,R,ugm-3 (Ref.eq)
01-01-2023,20:00,8.800,R,ugm-3 (FIDAS),6.038,R,ugm-3 (Ref.eq)
01-01-2023,21:00,8.100,R,ugm-3 (FIDAS),6.415,R,ugm-3 (Ref.eq)
01-01-2023,22:00,7.400,R,ugm-3 (FIDAS),6.132,R,ugm-3 (Ref.eq)
01-01-2023,23:00,6.300,R,ugm-3 (FIDAS),5.283,R,ugm-3 (Ref.eq)
01-01-2023,24:00,5.900,R,ugm-3 (FIDAS),4.623,R,ugm-3 (Ref.eq)
02-01-2023,01:00,4.300,R,ugm-3 (FIDAS),3.302,R,ugm-3 (Ref.eq)
02-01-2023,02:00,3.200,R,ugm-3 (FIDAS),2.453,R,ugm-3 (Ref.eq)
02-01-2023,03:00,3.100,R,ugm-3 (FIDAS),2.075,R,ugm-3 (Ref.eq)
02-01-2023,04:00,3.400,R,ugm-3 (FIDAS),2.170,R,ugm-3 (Ref.eq)
02-01-2023,05:00,3.800,R,ugm-3 (FIDAS),2.547,R,ugm-3 (Ref.eq)
02-01-2023,06:00,4.800,R,ugm-3 (FIDAS),3.208,R,ugm-3 (Ref.eq)
02-01-2023,07:00,5.700,R,ugm-3 (FIDAS),2.830,R,ugm-3 (Ref.eq)
02-01-2023,08:00,5.900,R,ugm-3 (FIDAS),2.736,R,ugm-3 (Ref.eq)
02-01-2023,09:00,6.500,R,ugm-3 (FIDAS),3.019,R,ugm-3 (Ref.eq)
02-01-2023,10:00,6.400,R,ugm-3 (FIDAS),3.302,R,ugm-3 (Ref.eq)
02-01-2023,11:00,7.200,R,ugm-3 (FIDAS),3.679,R,ugm-3 (Ref.eq)
02-01-2023,12:00,5.500,R,ugm-3 (FIDAS),3.585,R,ugm-3 (Ref.eq)
02-01-2023,13:00,5.200,R,ugm-3 (FIDAS),3.491,R,ugm-3 (Ref.eq)
02-01-2023,14:00,5.100,R,ugm-3 (FIDAS),3.302,R,ugm-3 (Ref.eq)
02-01-2023,15:00,4.800,R,ugm-3 (FIDAS),2.830,R,ugm-3 (Ref.eq)
02-01-2023,16:00,4.500,R,ugm-3 (FIDAS),2.830,R,ugm-3 (Ref.eq)
02-01-2023,17:00,5.700,R,ugm-3 (FIDAS),4.057,R,ugm-3 (Ref.eq)
02-01-2023,18:00,10.400,R,ugm-3 (FIDAS),8.019,R,ugm-3 (Ref.eq)
02-01-2023,19:00,28.700,R,ugm-3 (FIDAS),24.528,R,ugm-3 (Ref.eq)
02-01-2023,20:00,31.000,R,ugm-3 (FIDAS),26.510,R,ugm-3 (Ref.eq)
02-01-2023,21:00,30.000,R,ugm-3 (FIDAS),26.321,R,ugm-3 (Ref.eq)
02-01-2023,22:00,23.500,R,ugm-3 (FIDAS),20.660,R,ugm-3 (Ref.eq)
02-01-2023,23:00,22.600,R,ugm-3 (FIDAS),19.811,R,ugm-3 (Ref.eq)
02-01-2023,24:00,21.700,R,ugm-3 (FIDAS),18.868,R,ugm-3 (Ref.eq)
03-01-2023,01:00,17.000,R,ugm-3 (FIDAS),15.189,R,ugm-3 (Ref.eq)
03-01-2023,02:00,12.800,R,ugm-3 (FIDAS),11.038,R,ugm-3 (Ref.eq)
03-01-2023,03:00,9.300,R,ugm-3 (FIDAS),7.642,R,ugm-3 (Ref.eq)
03-01-2023,04:00,6.400,R,ugm-3 (FIDAS),5.283,R,ugm-3 (Ref.eq)
03-01-2023,05:00,7.200,R,ugm-3 (FIDAS),5.755,R,ugm-3 (Ref.eq)
03-01-2023,06:00,8.000,R,ugm-3 (FIDAS),6.226,R,ugm-3 (Ref.eq)
03-01-2023,07:00,8.400,R,ugm-3 (FIDAS),5.755,R,ugm-3 (Ref.eq)
03-01-2023,08:00,8.400,R,ugm-3 (FIDAS),4.906,R,ugm-3 (Ref.eq)
03-01-2023,09:00,12.400,R,ugm-3 (FIDAS),5.566,R,ugm-3 (Ref.eq)
03-01-2023,10:00,12.600,R,ugm-3 (FIDAS),5.755,R,ugm-3 (Ref.eq)
03-01-2023,11:00,8.600,R,ugm-3 (FIDAS),5.094,R,ugm-3 (Ref.eq)
03-01-2023,12:00,9.000,R,ugm-3 (FIDAS),5.000,R,ugm-3 (Ref.eq)
03-01-2023,13:00,6.100,R,ugm-3 (FIDAS),3.868,R,ugm-3 (Ref.eq)
03-01-2023,14:00,5.900,R,ugm-3 (FIDAS),3.491,R,ugm-3 (Ref.eq)
03-01-2023,15:00,7.700,R,ugm-3 (FIDAS),4.623,R,ugm-3 (Ref.eq)
03-01-2023,16:00,4.800,R,ugm-3 (FIDAS),3.113,R,ugm-3 (Ref.eq)
03-01-2023,17:00,7.200,R,ugm-3 (FIDAS),4.434,R,ugm-3 (Ref.eq)
03-01-2023,18:00,4.100,R,ugm-3 (FIDAS),2.925,R,ugm-3 (Ref.eq)
03-01-2023,19:00,3.100,R,ugm-3 (FIDAS),1.981,R,ugm-3 (Ref.eq)
03-01-2023,20:00,2.300,R,ugm-3 (FIDAS),1.698,R,ugm-3 (Ref.eq)
03-01-2023,21:00,1.200,R,ugm-3 (FIDAS),0.943,R,ugm-3 (Ref.eq)
03-01-2023,22:00,1.700,R,ugm-3 (FIDAS),1.226,R,ugm-3 (Ref.eq)
03-01-2023,23:00,6.200,R,ugm-3 (FIDAS),4.151,R,ugm-3 (Ref.eq)
03-01-2023,24:00,6.800,R,ugm-3 (FIDAS),4.528,R,ugm-3 (Ref.eq)
04-01-2023,01:00,7.100,R,ugm-3 (FIDAS),4.151,R,ugm-3 (Ref.eq)
04-01-2023,02:00,6.900,R,ugm-3 (FIDAS),3.962,R,ugm-3 (Ref.eq)
04-01-2023,03:00,9.300,R,ugm-3 (FIDAS),5.566,R,ugm-3 (Ref.eq)
04-01-2023,04:00,6.100,R,ugm-3 (FIDAS),4.057,R,ugm-3 (Ref.eq)
04-01-2023,05:00,3.400,R,ugm-3 (FIDAS),2.453,R,ugm-3 (Ref.eq)
04-01-2023,06:00,3.600,R,ugm-3 (FIDAS),2.359,R,ugm-3 (Ref.eq)
04-01-2023,07:00,3.900,R,ugm-3 (FIDAS),2.830,R,ugm-3 (Ref.eq)
04-01-2023,08:00,3.400,R,ugm-3 (FIDAS),2.359,R,ugm-3 (Ref.eq)
04-01-2023,09:00,3.700,R,ugm-3 (FIDAS),2.359,R,ugm-3 (Ref.eq)
04-01-2023,10:00,6.000,R,ugm-3 (FIDAS),3.302,R,ugm-3 (Ref.eq)
04-01-2023,11:00,8.000,R,ugm-3 (FIDAS),4.623,R,ugm-3 (Ref.eq)
04-01-2023,12:00,10.200,R,ugm-3 (FIDAS),5.377,R,ugm-3 (Ref.eq)
04-01-2023,13:00,10.400,R,ugm-3 (FIDAS),6.132,R,ugm-3 (Ref.eq)
04-01-2023,14:00,13.300,R,ugm-3 (FIDAS),7.453,R,ugm-3 (Ref.eq)
04-01-2023,15:00,11.800,R,ugm-3 (FIDAS),7.170,R,ugm-3 (Ref.eq)
04-01-2023,16:00,13.300,R,ugm-3 (FIDAS),7.830,R,ugm-3 (Ref.eq)
04-01-2023,17:00,13.800,R,ugm-3 (FIDAS),8.208,R,ugm-3 (Ref.eq)
04-01-2023,18:00,13.800,R,ugm-3 (FIDAS),7.925,R,ugm-3 (Ref.eq)
04-01-2023,19:00,16.000,R,ugm-3 (FIDAS),9.434,R,ugm-3 (Ref.eq)
04-01-2023,20:00,17.500,R,ugm-3 (FIDAS),10.566,R,ugm-3 (Ref.eq)
04-01-2023,21:00,18.900,R,ugm-3 (FIDAS),11.038,R,ugm-3 (Ref.eq)
04-01-2023,22:00,15.900,R,ugm-3 (FIDAS),9.623,R,ugm-3 (Ref.eq)
04-01-2023,23:00,15.600,R,ugm-3 (FIDAS),9.245,R,ugm-3 (Ref.eq)
04-01-2023,24:00,15.100,R,ugm-3 (FIDAS),8.962,R,ugm-3 (Ref.eq)
05-01-2023,01:00,16.600,R,ugm-3 (FIDAS),9.717,R,ugm-3 (Ref.eq)
05-01-2023,02:00,18.100,R,ugm-3 (FIDAS),10.377,R,ugm-3 (Ref.eq)
05-01-2023,03:00,18.700,R,ugm-3 (FIDAS),10.849,R,ugm-3 (Ref.eq)
05-01-2023,04:00,19.900,R,ugm-3 (FIDAS),11.132,R,ugm-3 (Ref.eq)
05-01-2023,05:00,19.600,R,ugm-3 (FIDAS),11.132,R,ugm-3 (Ref.eq)
05-01-2023,06:00,18.600,R,ugm-3 (FIDAS),10.755,R,ugm-3 (Ref.eq)
05-01-2023,07:00,18.700,R,ugm-3 (FIDAS),10.943,R,ugm-3 (Ref.eq)
05-01-2023,08:00,18.700,R,ugm-3 (FIDAS),10.849,R,ugm-3 (Ref.eq)
05-01-2023,09:00,17.000,R,ugm-3 (FIDAS),10.094,R,ugm-3 (Ref.eq)
05-01-2023,10:00,13.600,R,ugm-3 (FIDAS),8.774,R,ugm-3 (Ref.eq)
05-01-2023,11:00,5.800,R,ugm-3 (FIDAS),3.774,R,ugm-3 (Ref.eq)
05-01-2023,12:00,4.000,R,ugm-3 (FIDAS),2.642,R,ugm-3 (Ref.eq)
05-01-2023,13:00,5.500,R,ugm-3 (FIDAS),3.019,R,ugm-3 (Ref.eq)
05-01-2023,14:00,6.700,R,ugm-3 (FIDAS),4.057,R,ugm-3 (Ref.eq)
05-01-2023,15:00,9.900,R,ugm-3 (FIDAS),5.849,R,ugm-3 (Ref.eq)
05-01-2023,16:00,11.500,R,ugm-3 (FIDAS),6.509,R,ugm-3 (Ref.eq)
05-01-2023,17:00,9.500,R,ugm-3 (FIDAS),5.660,R,ugm-3 (Ref.eq)
05-01-2023,18:00,7.600,R,ugm-3 (FIDAS),4.717,R,ugm-3 (Ref.eq)
05-01-2023,19:00,6.300,R,ugm-3 (FIDAS),3.962,R,ugm-3 (Ref.eq)
05-01-2023,20:00,7.000,R,ugm-3 (FIDAS),4.057,R,ugm-3 (Ref.eq)
05-01-2023,21:00,7.900,R,ugm-3 (FIDAS),4.717,R,ugm-3 (Ref.eq)
05-01-2023,22:00,7.900,R,ugm-3 (FIDAS),4.340,R,ugm-3 (Ref.eq)
05-01-2023,23:00,7.000,R,ugm-3 (FIDAS),3.868,R,ugm-3 (Ref.eq)
05-01-2023,24:00,5.400,R,ugm-3 (FIDAS),3.208,R,ugm-3 (Ref.eq)
06-01-2023,01:00,2.800,R,ugm-3 (FIDAS),1.792,R,ugm-3 (Ref.eq)
06-01-2023,02:00,2.500,R,ugm-3 (FIDAS),1.604,R,ugm-3 (Ref.eq)
06-01-2023,03:00,1.400,R,ugm-3 (FIDAS),0.849,R,ugm-3 (Ref.eq)
06-01-2023,04:00,1.400,R,ugm-3 (FIDAS),0.660,R,ugm-3 (Ref.eq)
06-01-2023,05:00,1.600,R,ugm-3 (FIDAS),0.943,R,ugm-3 (Ref.eq)
06-01-2023,06:00,2.900,R,ugm-3 (FIDAS),1.321,R,ugm-3 (Ref.eq)
06-01-2023,07:00,2.700,R,ugm-3 (FIDAS),1.321,R,ugm-3 (Ref.eq)
06-01-2023,08:00,3.500,R,ugm-3 (FIDAS),1.509,R,ugm-3 (Ref.eq)
06-01-2023,09:00,3.200,R,ugm-3 (FIDAS),1.604,R,ugm-3 (Ref.eq)
06-01-2023,10:00,3.000,R,ugm-3 (FIDAS),1.509,R,ugm-3 (Ref.eq)
06-01-2023,11:00,5.200,R,ugm-3 (FIDAS),2.359,R,ugm-3 (Ref.eq)
06-01-2023,12:00,6.500,R,ugm-3 (FIDAS),3.019,R,ugm-3 (Ref.eq)
06-01-2023,13:00,7.600,R,ugm-3 (FIDAS),3.585,R,ugm-3 (Ref.eq)
06-01-2023,14:00,7.000,R,ugm-3 (FIDAS),3.019,R,ugm-3 (Ref.eq)
06-01-2023,15:00,6.100,R,ugm-3 (FIDAS),3.019,R,ugm-3 (Ref.eq)
06-01-2023,16:00,4.700,R,ugm-3 (FIDAS),2.642,R,ugm-3 (Ref.eq)
06-01-2023,17:00,4.300,R,ugm-3 (FIDAS),2.830,R,ugm-3 (Ref.eq)
06-01-2023,18:00,2.600,R,ugm-3 (FIDAS),1.981,R,ugm-3 (Ref.eq)
06-01-2023,19:00,1.900,R,ugm-3 (FIDAS),1.509,R,ugm-3 (Ref.eq)
06-01-2023,20:00,2.800,R,ugm-3 (FIDAS),2.075,R,ugm-3 (Ref.eq)
06-01-2023,21:00,5.200,R,ugm-3 (FIDAS),3.396,R,ugm-3 (Ref.eq)
06-01-2023,22:00,5.100,R,ugm-3 (FIDAS),3.302,R,ugm-3 (Ref.eq)
06-01-2023,23:00,6.200,R,ugm-3 (FIDAS),3.868,R,ugm-3 (Ref.eq)
06-01-2023,24:00,6.500,R,ugm-3 (FIDAS),4.057,R,ugm-3 (Ref.eq)
07-01-2023,01:00,6.500,R,ugm-3 (FIDAS),4.057,R,ugm-3 (Ref.eq)
07-01-2023,02:00,6.700,R,ugm-3 (FIDAS),4.340,R,ugm-3 (Ref.eq)
07-01-2023,03:00,7.500,R,ugm-3 (FIDAS),4.434,R,ugm-3 (Ref.eq)
07-01-2023,04:00,6.900,R,ugm-3 (FIDAS),3.962,R,ugm-3 (Ref.eq)
07-01-2023,05:00,7.700,R,ugm-3 (FIDAS),4.151,R,ugm-3 (Ref.eq)
07-01-2023,06:00,7.100,R,ugm-3 (FIDAS),3.962,R,ugm-3 (Ref.eq)
07-01-2023,07:00,8.500,R,ugm-3 (FIDAS),4.340,R,ugm-3 (Ref.eq)
07-01-2023,08:00,9.200,R,ugm-3 (FIDAS),4.811,R,ugm-3 (Ref.eq)
07-01-2023,09:00,9.000,R,ugm-3 (FIDAS),4.811,R,ugm-3 (Ref.eq)
07-01-2023,10:00,6.300,R,ugm-3 (FIDAS),4.057,R,ugm-3 (Ref.eq)
07-01-2023,11:00,6.600,R,ugm-3 (FIDAS),4.245,R,ugm-3 (Ref.eq)
07-01-2023,12:00,9.600,R,ugm-3 (FIDAS),5.472,R,ugm-3 (Ref.eq)
07-01-2023,13:00,9.200,R,ugm-3 (FIDAS),5.472,R,ugm-3 (Ref.eq)
07-01-2023,14:00,8.700,R,ugm-3 (FIDAS),5.189,R,ugm-3 (Ref.eq)
07-01-2023,15:00,8.300,R,ugm-3 (FIDAS),4.906,R,ugm-3 (Ref.eq)
07-01-2023,16:00,7.300,R,ugm-3 (FIDAS),4.245,R,ugm-3 (Ref.eq)
07-01-2023,17:00,10.000,R,ugm-3 (FIDAS),5.377,R,ugm-3 (Ref.eq)
07-01-2023,18:00,10.000,R,ugm-3 (FIDAS),5.566,R,ugm-3 (Ref.eq)
07-01-2023,19:00,3.800,R,ugm-3 (FIDAS),2.547,R,ugm-3 (Ref.eq)
07-01-2023,20:00,8.300,R,ugm-3 (FIDAS),3.774,R,ugm-3 (Ref.eq)
07-01-2023,21:00,13.500,R,ugm-3 (FIDAS),6.415,R,ugm-3 (Ref.eq)
07-01-2023,22:00,16.200,R,ugm-3 (FIDAS),7.830,R,ugm-3 (Ref.eq)
07-01-2023,23:00,20.500,R,ugm-3 (FIDAS),9.528,R,ugm-3 (Ref.eq)
07-01-2023,24:00,20.400,R,ugm-3 (FIDAS),9.434,R,ugm-3 (Ref.eq)
08-01-2023,01:00,16.600,R,ugm-3 (FIDAS),8.113,R,ugm-3 (Ref.eq)
08-01-2023,02:00,16.200,R,ugm-3 (FIDAS),8.302,R,ugm-3 (Ref.eq)
08-01-2023,03:00,17.100,R,ugm-3 (FIDAS),9.057,R,ugm-3 (Ref.eq)
08-01-2023,04:00,13.700,R,ugm-3 (FIDAS),7.170,R,ugm-3 (Ref.eq)
08-01-2023,05:00,9.800,R,ugm-3 (FIDAS),5.472,R,ugm-3 (Ref.eq)
08-01-2023,06:00,3.300,R,ugm-3 (FIDAS),2.075,R,ugm-3 (Ref.eq)
08-01-2023,07:00,4.000,R,ugm-3 (FIDAS),2.264,R,ugm-3 (Ref.eq)
08-01-2023,08:00,7.100,R,ugm-3 (FIDAS),3.774,R,ugm-3 (Ref.eq)
08-01-2023,09:00,7.300,R,ugm-3 (FIDAS),3.679,R,ugm-3 (Ref.eq)
08-01-2023,10:00,10.100,R,ugm-3 (FIDAS),5.094,R,ugm-3 (Ref.eq)
08-01-2023,11:00,13.300,R,ugm-3 (FIDAS),6.604,R,ugm-3 (Ref.eq)
08-01-2023,12:00,13.300,R,ugm-3 (FIDAS),6.604,R,ugm-3 (Ref.eq)
08-01-2023,13:00,12.000,R,ugm-3 (FIDAS),6.321,R,ugm-3 (Ref.eq)
08-01-2023,14:00,10.300,R,ugm-3 (FIDAS),5.566,R,ugm-3 (Ref.eq)
08-01-2023,15:00,6.700,R,ugm-3 (FIDAS),4.057,R,ugm-3 (Ref.eq)
08-01-2023,16:00,2.700,R,ugm-3 (FIDAS),1.981,R,ugm-3 (Ref.eq)
08-01-2023,17:00,3.600,R,ugm-3 (FIDAS),2.642,R,ugm-3 (Ref.eq)
08-01-2023,18:00,4.700,R,ugm-3 (FIDAS),2.830,R,ugm-3 (Ref.eq)
08-01-2023,19:00,5.200,R,ugm-3 (FIDAS),3.113,R,ugm-3 (Ref.eq)
08-01-2023,20:00,7.700,R,ugm-3 (FIDAS),4.434,R,ugm-3 (Ref.eq)
08-01-2023,21:00,11.200,R,ugm-3 (FIDAS),5.283,R,ugm-3 (Ref.eq)
08-01-2023,22:00,13.600,R,ugm-3 (FIDAS),6.509,R,ugm-3 (Ref.eq)
08-01-2023,23:00,8.700,R,ugm-3 (FIDAS),5.000,R,ugm-3 (Ref.eq)
08-01-2023,24:00,7.000,R,ugm-3 (FIDAS),3.962,R,ugm-3 (Ref.eq)
09-01-2023,01:00,5.400,R,ugm-3 (FIDAS),3.302,R,ugm-3 (Ref.eq)
09-01-2023,02:00,3.800,R,ugm-3 (FIDAS),2.264,R,ugm-3 (Ref.eq)
09-01-2023,03:00,3.700,R,ugm-3 (FIDAS),2.170,R,ugm-3 (Ref.eq)
09-01-2023,04:00,4.200,R,ugm-3 (FIDAS),2.170,R,ugm-3 (Ref.eq)
09-01-2023,05:00,7.500,R,ugm-3 (FIDAS),3.302,R,ugm-3 (Ref.eq)
09-01-2023,06:00,9.100,R,ugm-3 (FIDAS),3.962,R,ugm-3 (Ref.eq)
09-01-2023,07:00,9.000,R,ugm-3 (FIDAS),4.340,R,ugm-3 (Ref.eq)
09-01-2023,08:00,9.200,R,ugm-3 (FIDAS),4.434,R,ugm-3 (Ref.eq)
09-01-2023,09:00,11.500,R,ugm-3 (FIDAS),5.094,R,ugm-3 (Ref.eq)
09-01-2023,10:00,9.400,R,ugm-3 (FIDAS),4.434,R,ugm-3 (Ref.eq)
09-01-2023,11:00,5.500,R,ugm-3 (FIDAS),3.113,R,ugm-3 (Ref.eq)
09-01-2023,12:00,5.800,R,ugm-3 (FIDAS),2.359,R,ugm-3 (Ref.eq)
09-01-2023,13:00,7.100,R,ugm-3 (FIDAS),2.642,R,ugm-3 (Ref.eq)
09-01-2023,14:00,7.400,R,ugm-3 (FIDAS),3.019,R,ugm-3 (Ref.eq)
09-01-2023,15:00,8.000,R,ugm-3 (FIDAS),3.679,R,ugm-3 (Ref.eq)
09-01-2023,16:00,6.900,R,ugm-3 (FIDAS),3.585,R,ugm-3 (Ref.eq)
09-01-2023,17:00,10.100,R,ugm-3 (FIDAS),5.094,R,ugm-3 (Ref.eq)
09-01-2023,18:00,9.400,R,ugm-3 (FIDAS),5.000,R,ugm-3 (Ref.eq)
09-01-2023,19:00,9.200,R,ugm-3 (FIDAS),4.811,R,ugm-3 (Ref.eq)
09-01-2023,20:00,10.700,R,ugm-3 (FIDAS),5.943,R,ugm-3 (Ref.eq)
09-01-2023,21:00,14.400,R,ugm-3 (FIDAS),7.736,R,ugm-3 (Ref.eq)
09-01-2023,22:00,17.500,R,ugm-3 (FIDAS),9.057,R,ugm-3 (Ref.eq)
09-01-2023,23:00,19.300,R,ugm-3 (FIDAS),9.811,R,ugm-3 (Ref.eq)
09-01-2023,24:00,19.700,R,ugm-3 (FIDAS),10.094,R,ugm-3 (Ref.eq)
10-01-2023,01:00,18.400,R,ugm-3 (FIDAS),9.245,R,ugm-3 (Ref.eq)
10-01-2023,02:00,18.300,R,ugm-3 (FIDAS),9.057,R,ugm-3 (Ref.eq)
10-01-2023,03:00,16.800,R,ugm-3 (FIDAS),8.396,R,ugm-3 (Ref.eq)
10-01-2023,04:00,16.900,R,ugm-3 (FIDAS),8.396,R,ugm-3 (Ref.eq)
10-01-2023,05:00,16.200,R,ugm-3 (FIDAS),8.019,R,ugm-3 (Ref.eq)
10-01-2023,06:00,17.600,R,ugm-3 (FIDAS),8.208,R,ugm-3 (Ref.eq)
10-01-2023,07:00,19.300,R,ugm-3 (FIDAS),8.679,R,ugm-3 (Ref.eq)
10-01-2023,08:00,15.100,R,ugm-3 (FIDAS),7.925,R,ugm-3 (Ref.eq)
10-01-2023,09:00,6.900,R,ugm-3 (FIDAS),4.811,R,ugm-3 (Ref.eq)
10-01-2023,10:00,3.200,R,ugm-3 (FIDAS),2.075,R,ugm-3 (Ref.eq)
10-01-2023,11:00,0.700,R,ugm-3 (FIDAS),0.472,R,ugm-3 (Ref.eq)
10-01-2023,12:00,0.800,R,ugm-3 (FIDAS),0.472,R,ugm-3 (Ref.eq)
10-01-2023,13:00,1.300,R,ugm-3 (FIDAS),0.755,R,ugm-3 (Ref.eq)
10-01-2023,14:00,9.000,R,ugm-3 (FIDAS),5.849,R,ugm-3 (Ref.eq)
10-01-2023,15:00,16.800,R,ugm-3 (FIDAS),10.849,R,ugm-3 (Ref.eq)
10-01-2023,16:00,10.600,R,ugm-3 (FIDAS),6.792,R,ugm-3 (Ref.eq)
10-01-2023,17:00,14.200,R,ugm-3 (FIDAS),8.868,R,ugm-3 (Ref.eq)
10-01-2023,18:00,9.000,R,ugm-3 (FIDAS),6.038,R,ugm-3 (Ref.eq)
10-01-2023,19:00,3.200,R,ugm-3 (FIDAS),2.359,R,ugm-3 (Ref.eq)
10-01-2023,20:00,2.500,R,ugm-3 (FIDAS),1.792,R,ugm-3 (Ref.eq)
10-01-2023,21:00,2.200,R,ugm-3 (FIDAS),1.604,R,ugm-3 (Ref.eq)
10-01-2023,22:00,2.200,R,ugm-3 (FIDAS),1.509,R,ugm-3 (Ref.eq)
10-01-2023,23:00,3.200,R,ugm-3 (FIDAS),2.075,R,ugm-3 (Ref.eq)
10-01-2023,24:00,4.400,R,ugm-3 (FIDAS),2.453,R,ugm-3 (Ref.eq)
11-01-2023,01:00,7.100,R,ugm-3 (FIDAS),3.491,R,ugm-3 (Ref.eq)
11-01-2023,02:00,8.700,R,ugm-3 (FIDAS),4.340,R,ugm-3 (Ref.eq)
11-01-2023,03:00,10.000,R,ugm-3 (FIDAS),4.906,R,ugm-3 (Ref.eq)
11-01-2023,04:00,11.600,R,ugm-3 (FIDAS),5.755,R,ugm-3 (Ref.eq)
11-01-2023,05:00,12.400,R,ugm-3 (FIDAS),6.132,R,ugm-3 (Ref.eq)
11-01-2023,06:00,13.900,R,ugm-3 (FIDAS),6.698,R,ugm-3 (Ref.eq)
11-01-2023,07:00,14.300,R,ugm-3 (FIDAS),7.076,R,ugm-3 (Ref.eq)
11-01-2023,08:00,14.500,R,ugm-3 (FIDAS),7.076,R,ugm-3 (Ref.eq)
11-01-2023,09:00,11.700,R,ugm-3 (FIDAS),5.943,R,ugm-3 (Ref.eq)
11-01-2023,10:00,12.800,R,ugm-3 (FIDAS),6.415,R,ugm-3 (Ref.eq)
11-01-2023,11:00,13.400,R,ugm-3 (FIDAS),6.226,R,ugm-3 (Ref.eq)
11-01-2023,12:00,10.700,R,ugm-3 (FIDAS),5.094,R,ugm-3 (Ref.eq)
11-01-2023,13:00,11.000,R,ugm-3 (FIDAS),4.811,R,ugm-3 (Ref.eq)
11-01-2023,14:00,11.200,R,ugm-3 (FIDAS),5.566,R,ugm-3 (Ref.eq)
11-01-2023,15:00,5.000,R,ugm-3 (FIDAS),2.264,R,ugm-3 (Ref.eq)
11-01-2023,16:00,11.700,R,ugm-3 (FIDAS),6.132,R,ugm-3 (Ref.eq)
11-01-2023,17:00,5.600,R,ugm-3 (FIDAS),3.774,R,ugm-3 (Ref.eq)
11-01-2023,18:00,5.100,R,ugm-3 (FIDAS),3.019,R,ugm-3 (Ref.eq)
11-01-2023,19:00,6.300,R,ugm-3 (FIDAS),3.868,R,ugm-3 (Ref.eq)
11-01-2023,20:00,11.900,R,ugm-3 (FIDAS),6.604,R,ugm-3 (Ref.eq)
11-01-2023,21:00,10.100,R,ugm-3 (FIDAS),6.321,R,ugm-3 (Ref.eq)
11-01-2023,22:00,15.100,R,ugm-3 (FIDAS),8.962,R,ugm-3 (Ref.eq)
11-01-2023,23:00,11.500,R,ugm-3 (FIDAS),6.981,R,ugm-3 (Ref.eq)
11-01-2023,24:00,12.300,R,ugm-3 (FIDAS),7.453,R,ugm-3 (Ref.eq)
12-01-2023,01:00,10.600,R,ugm-3 (FIDAS),6.698,R,ugm-3 (Ref.eq)
12-01-2023,02:00,9.500,R,ugm-3 (FIDAS),5.943,R,ugm-3 (Ref.eq)
12-01-2023,03:00,5.800,R,ugm-3 (FIDAS),3.679,R,ugm-3 (Ref.eq)
12-01-2023,04:00,4.500,R,ugm-3 (FIDAS),2.736,R,ugm-3 (Ref.eq)
12-01-2023,05:00,2.700,R,ugm-3 (FIDAS),1.792,R,ugm-3 (Ref.eq)
12-01-2023,06:00,2.200,R,ugm-3 (FIDAS),1.509,R,ugm-3 (Ref.eq)
12-01-2023,07:00,2.400,R,ugm-3 (FIDAS),1.509,R,ugm-3 (Ref.eq)
12-01-2023,08:00,2.900,R,ugm-3 (FIDAS),1.698,R,ugm-3 (Ref.eq)
12-01-2023,09:00,3.800,R,ugm-3 (FIDAS),2.359,R,ugm-3 (Ref.eq)
12-01-2023,10:00,4.100,R,ugm-3 (FIDAS),2.453,R,ugm-3 (Ref.eq)
12-01-2023,11:00,2.900,R,ugm-3 (FIDAS),1.509,R,ugm-3 (Ref.eq)
12-01-2023,12:00,2.200,R,ugm-3 (FIDAS),1.321,R,ugm-3 (Ref.eq)
12-01-2023,13:00,2.800,R,ugm-3 (FIDAS),1.509,R,ugm-3 (Ref.eq)
12-01-2023,14:00,3.100,R,ugm-3 (FIDAS),1.698,R,ugm-3 (Ref.eq)
12-01-2023,15:00,3.000,R,ugm-3 (FIDAS),1.887,R,ugm-3 (Ref.eq)
12-01-2023,16:00,3.700,R,ugm-3 (FIDAS),2.170,R,ugm-3 (Ref.eq)
12-01-2023,17:00,4.200,R,ugm-3 (FIDAS),2.453,R,ugm-3 (Ref.eq)
12-01-2023,18:00,10.400,R,ugm-3 (FIDAS),5.755,R,ugm-3 (Ref.eq)
12-01-2023,19:00,25.100,R,ugm-3 (FIDAS),13.208,R,ugm-3 (Ref.eq)
12-01-2023,20:00,26.000,R,ugm-3 (FIDAS),13.868,R,ugm-3 (Ref.eq)
12-01-2023,21:00,23.900,R,ugm-3 (FIDAS),12.925,R,ugm-3 (Ref.eq)
12-01-2023,22:00,22.800,R,ugm-3 (FIDAS),12.453,R,ugm-3 (Ref.eq)
12-01-2023,23:00,21.100,R,ugm-3 (FIDAS),11.698,R,ugm-3 (Ref.eq)
12-01-2023,24:00,18.000,R,ugm-3 (FIDAS),9.717,R,ugm-3 (Ref.eq)
13-01-2023,01:00,13.300,R,ugm-3 (FIDAS),6.981,R,ugm-3 (Ref.eq)
13-01-2023,02:00,11.600,R,ugm-3 (FIDAS),5.660,R,ugm-3 (Ref.eq)
13-01-2023,03:00,13.600,R,ugm-3 (FIDAS),6.509,R,ugm-3 (Ref.eq)
13-01-2023,04:00,13.500,R,ugm-3 (FIDAS),6.792,R,ugm-3 (Ref.eq)
13-01-2023,05:00,14.700,R,ugm-3 (FIDAS),7.359,R,ugm-3 (Ref.eq)
13-01-2023,06:00,12.400,R,ugm-3 (FIDAS),6.792,R,ugm-3 (Ref.eq)
13-01-2023,07:00,11.900,R,ugm-3 (FIDAS),6.509,R,ugm-3 (Ref.eq)
13-01-2023,08:00,14.400,R,ugm-3 (FIDAS),7.170,R,ugm-3 (Ref.eq)
13-01-2023,09:00,14.600,R,ugm-3 (FIDAS),7.076,R,ugm-3 (Ref.eq)
13-01-2023,10:00,14.000,R,ugm-3 (FIDAS),6.698,R,ugm-3 (Ref.eq)
13-01-2023,11:00,11.100,R,ugm-3 (FIDAS),5.566,R,ugm-3 (Ref.eq)
13-01-2023,12:00,11.300,R,ugm-3 (FIDAS),5.377,R,ugm-3 (Ref.eq)
13-01-2023,13:00,11.400,R,ugm-3 (FIDAS),5.660,R,ugm-3 (Ref.eq)
13-01-2023,14:00,9.500,R,ugm-3 (FIDAS),4.528,R,ugm-3 (Ref.eq)
13-01-2023,15:00,10.300,R,ugm-3 (FIDAS),4.906,R,ugm-3 (Ref.eq)
13-01-2023,16:00,10.600,R,ugm-3 (FIDAS),5.000,R,ugm-3 (Ref.eq)
13-01-2023,17:00,12.200,R,ugm-3 (FIDAS),5.943,R,ugm-3 (Ref.eq)
13-01-2023,18:00,13.900,R,ugm-3 (FIDAS),7.264,R,ugm-3 (Ref.eq)
13-01-2023,19:00,15.900,R,ugm-3 (FIDAS),8.396,R,ugm-3 (Ref.eq)
13-01-2023,20:00,16.900,R,ugm-3 (FIDAS),8.491,R,ugm-3 (Ref.eq)
13-01-2023,21:00,18.500,R,ugm-3 (FIDAS),9.434,R,ugm-3 (Ref.eq)
13-01-2023,22:00,19.100,R,ugm-3 (FIDAS),10.094,R,ugm-3 (Ref.eq)
13-01-2023,23:00,18.400,R,ugm-3 (FIDAS),10.000,R,ugm-3 (Ref.eq)
13-01-2023,24:00,20.300,R,ugm-3 (FIDAS),9.906,R,ugm-3 (Ref.eq)
14-01-2023,01:00,20.900,R,ugm-3 (FIDAS),9.623,R,ugm-3 (Ref.eq)
14-01-2023,02:00,19.800,R,ugm-3 (FIDAS),9.245,R,ugm-3 (Ref.eq)
14-01-2023,03:00,12.400,R,ugm-3 (FIDAS),7.264,R,ugm-3 (Ref.eq)
14-01-2023,04:00,4.000,R,ugm-3 (FIDAS),2.925,R,ugm-3 (Ref.eq)
14-01-2023,05:00,1.900,R,ugm-3 (FIDAS),1.321,R,ugm-3 (Ref.eq)
14-01-2023,06:00,1.600,R,ugm-3 (FIDAS),0.943,R,ugm-3 (Ref.eq)
14-01-2023,07:00,2.600,R,ugm-3 (FIDAS),1.887,R,ugm-3 (Ref.eq)
14-01-2023,08:00,3.400,R,ugm-3 (FIDAS),2.359,R,ugm-3 (Ref.eq)
14-01-2023,09:00,2.600,R,ugm-3 (FIDAS),1.698,R,ugm-3 (Ref.eq)
14-01-2023,10:00,1.400,R,ugm-3 (FIDAS),0.943,R,ugm-3 (Ref.eq)
14-01-2023,11:00,1.000,R,ugm-3 (FIDAS),0.660,R,ugm-3 (Ref.eq)
14-01-2023,12:00,1.100,R,ugm-3 (FIDAS),0.660,R,ugm-3 (Ref.eq)
14-01-2023,13:00,1.100,R,ugm-3 (FIDAS),0.566,R,ugm-3 (Ref.eq)
14-01-2023,14:00,2.300,R,ugm-3 (FIDAS),1.226,R,ugm-3 (Ref.eq)
14-01-2023,15:00,3.300,R,ugm-3 (FIDAS),1.792,R,ugm-3 (Ref.eq)
14-01-2023,16:00,2.200,R,ugm-3 (FIDAS),1.321,R,ugm-3 (Ref.eq)
14-01-2023,17:00,2.400,R,ugm-3 (FIDAS),1.415,R,ugm-3 (Ref.eq)
14-01-2023,18:00,8.300,R,ugm-3 (FIDAS),3.868,R,ugm-3 (Ref.eq)
14-01-2023,19:00,11.100,R,ugm-3 (FIDAS),5.472,R,ugm-3 (Ref.eq)
14-01-2023,20:00,11.900,R,ugm-3 (FIDAS),5.755,R,ugm-3 (Ref.eq)
14-01-2023,21:00,11.700,R,ugm-3 (FIDAS),5.849,R,ugm-3 (Ref.eq)
14-01-2023,22:00,10.000,R,ugm-3 (FIDAS),5.377,R,ugm-3 (Ref.eq)
14-01-2023,23:00,9.800,R,ugm-3 (FIDAS),4.623,R,ugm-3 (Ref.eq)
14-01-2023,24:00,7.700,R,ugm-3 (FIDAS),3.868,R,ugm-3 (Ref.eq)
15-01-2023,01:00,5.300,R,ugm-3 (FIDAS),2.547,R,ugm-3 (Ref.eq)
15-01-2023,02:00,5.100,R,ugm-3 (FIDAS),2.642,R,ugm-3 (Ref.eq)
15-01-2023,03:00,6.200,R,ugm-3 (FIDAS),3.113,R,ugm-3 (Ref.eq)
15-01-2023,04:00,5.800,R,ugm-3 (FIDAS),2.830,R,ugm-3 (Ref.eq)
15-01-2023,05:00,5.700,R,ugm-3 (FIDAS),2.736,R,ugm-3 (Ref.eq)
15-01-2023,06:00,4.600,R,ugm-3 (FIDAS),2.359,R,ugm-3 (Ref.eq)
15-01-2023,07:00,4.000,R,ugm-3 (FIDAS),1.887,R,ugm-3 (Ref.eq)
15-01-2023,08:00,4.400,R,ugm-3 (FIDAS),1.981,R,ugm-3 (Ref.eq)
15-01-2023,09:00,5.000,R,ugm-3 (FIDAS),2.642,R,ugm-3 (Ref.eq)
15-01-2023,10:00,7.300,R,ugm-3 (FIDAS),3.396,R,ugm-3 (Ref.eq)
15-01-2023,11:00,7.700,R,ugm-3 (FIDAS),3.585,R,ugm-3 (Ref.eq)
15-01-2023,12:00,9.300,R,ugm-3 (FIDAS),4.057,R,ugm-3 (Ref.eq)
15-01-2023,13:00,9.000,R,ugm-3 (FIDAS),4.057,R,ugm-3 (Ref.eq)
15-01-2023,14:00,7.600,R,ugm-3 (FIDAS),3.868,R,ugm-3 (Ref.eq)
15-01-2023,15:00,8.100,R,ugm-3 (FIDAS),3.679,R,ugm-3 (Ref.eq)
15-01-2023,16:00,8.900,R,ugm-3 (FIDAS),4.057,R,ugm-3 (Ref.eq)
15-01-2023,17:00,8.200,R,ugm-3 (FIDAS),4.340,R,ugm-3 (Ref.eq)
15-01-2023,18:00,10.100,R,ugm-3 (FIDAS),6.226,R,ugm-3 (Ref.eq)
15-01-2023,19:00,10.900,R,ugm-3 (FIDAS),6.321,R,ugm-3 (Ref.eq)
15-01-2023,20:00,9.900,R,ugm-3 (FIDAS),6.415,R,ugm-3 (Ref.eq)
15-01-2023,21:00,10.800,R,ugm-3 (FIDAS),6.321,R,ugm-3 (Ref.eq)
15-01-2023,22:00,11.600,R,ugm-3 (FIDAS),7.453,R,ugm-3 (Ref.eq)
15-01-2023,23:00,12.200,R,ugm-3 (FIDAS),7.925,R,ugm-3 (Ref.eq)
15-01-2023,24:00,14.200,R,ugm-3 (FIDAS),8.208,R,ugm-3 (Ref.eq)
16-01-2023,01:00,14.700,R,ugm-3 (FIDAS),6.981,R,ugm-3 (Ref.eq)
16-01-2023,02:00,12.000,R,ugm-3 (FIDAS),6.321,R,ugm-3 (Ref.eq)
16-01-2023,03:00,7.300,R,ugm-3 (FIDAS),5.000,R,ugm-3 (Ref.eq)
16-01-2023,04:00,2.000,R,ugm-3 (FIDAS),1.415,R,ugm-3 (Ref.eq)
16-01-2023,05:00,0.800,R,ugm-3 (FIDAS),0.566,R,ugm-3 (Ref.eq)
16-01-2023,06:00,0.900,R,ugm-3 (FIDAS),0.566,R,ugm-3 (Ref.eq)
16-01-2023,07:00,1.500,R,ugm-3 (FIDAS),1.038,R,ugm-3 (Ref.eq)
16-01-2023,08:00,4.300,R,ugm-3 (FIDAS),3.113,R,ugm-3 (Ref.eq)
16-01-2023,09:00,10.800,R,ugm-3 (FIDAS),6.132,R,ugm-3 (Ref.eq)
16-01-2023,10:00,10.700,R,ugm-3 (FIDAS),7.076,R,ugm-3 (Ref.eq)
16-01-2023,11:00,9.500,R,ugm-3 (FIDAS),6.887,R,ugm-3 (Ref.eq)
16-01-2023,12:00,9.600,R,ugm-3 (FIDAS),7.453,R,ugm-3 (Ref.eq)
16-01-2023,13:00,12.100,R,ugm-3 (FIDAS),9.057,R,ugm-3 (Ref.eq)
16-01-2023,14:00,10.800,R,ugm-3 (FIDAS),6.887,R,ugm-3 (Ref.eq)
16-01-2023,15:00,9.900,R,ugm-3 (FIDAS),6.509,R,ugm-3 (Ref.eq)
16-01-2023,16:00,4.800,R,ugm-3 (FIDAS),3.113,R,ugm-3 (Ref.eq)
16-01-2023,17:00,2.700,R,ugm-3 (FIDAS),1.698,R,ugm-3 (Ref.eq)
16-01-2023,18:00,5.300,R,ugm-3 (FIDAS),3.962,R,ugm-3 (Ref.eq)
16-01-2023,19:00,4.900,R,ugm-3 (FIDAS),3.491,R,ugm-3 (Ref.eq)